SCP
-0 0 0 0 0 0 0 0 0 0 0 0 0 0 0 0 0 0 0 0 -0 -0 -0 -0 0 -0 0 0 0 -0 -0 0 -0 0 -0 -0 -0 -0 -0 -0 -0 -0 -0 0 -0 -0 -0 -0 -0
0 0 0 0 0 0 0 0 0 0 0 0 0 0 0 0 0 0 0 0 0 0 -0 -0 0 -0 0 0 0 -0 -0 -0 0 -0 -0 -0 -0 -0 -0 -0 -0 -0 -0 -0 -0 -0 -0 -0 -0
0 0 0 0 0 0 0 0 0 0 0 0 0 0 0 0 0 0 0 0 0 0 -0 -0 0 -0 0 0 0 0 -0 0 0 -0 -0 -0 -0 -0 -0 -0 -0 -0 -0 -0 -0 -0 -0 -0 -0
0 0 0 0 0 0 0 0 0 0 0 0 0 0 0 0 0 0 0 0 0 0 -0 -0 0 0 0 0 0 0 0 0 0 -0 -0 -0 -0 -0 -0 -0 -0 -0 -0 -0 -0 -0 -0 -0 -0
0 0 0 0 -0 0 0 0 0 0 0 0 0 0 0 0 0 0 0 0 0 0 0 0 0 0 0 0 0 0 0 0 0 0 -0 -0 -0 -0 -0 -0 -0 -0 -0 -0 -0 -0 -0 -0 -0
0 0 0 0 -0 -0 0 0 0 0 0 0 0 0 0 0 0 0 0 0 0 0 0 0 0 0 0 0 0 0 0 0 0 0 -0 -0 -0 -0 -0 -0 -0 -0 -0 -0 -0 -0 -0 -0 -0
0 0 0 0 0 0 0 0 0 0 0 0 0 0 0 0 0 0 0 0 0 0 0 0 0 0 0 0 0 0 0 0 0 0 0 -0 -0 -0 -0 -0 -0 -0 -0 -0 -0 -0 -0 -0 -0
0 0 0 0 0 0 0 0 0 0 0 0 0 0 0 0 0 0 0 0 0 0 0 0 0 0 0 0 0 0 0 0 0 0 0 0 -0 -0 -0 -0 -0 -0 -0 -0 -0 -0 -0 -0 -0
0 0 0 0 0 0 0 0 0 0 0 0 0 0 0 0 0 0 0 0 0 0 0 0 0 0 0 0 0 0 0 0 0 0 0 0 0 0 -0 -0 -0 -0 -0 -0 -0 -0 -0 -0 0
0 0 0 0 0 0 0 0 0 0 0 0 0 0 0 0 0 0 0 0 0 0 0 0 0 0 0 0 0 0 0 0 0 0 0 0 0 0 0 -0 -0 -0 -0 -0 -0 0 0 -0 -0
0 0 0 0 0 0 0 0 0 0 0 0 0 0 0 0 0 0 0 0 0 0 0 0 0 0 0 0 0 0 0 0 0 0 0 0 0 0 0 0 0 0 0 0 0 0 -0 0 0
0 0 0 0 0 0 0 0 0 0 0 0 0 0 0 0 0 0 0 0 0 0 0 0 0 0 0 0 0 0 0 0 0 0 0 0 0 0 0 0 0 0 0 0 0 0 0 0 0
0 0 0 0 0 0 0 0 0 0 0 0 0 0 0 0 0 0 0 0 0 0 0 0 0 0 0 0 0 0 0 0 0 0 0 0 0 0 0 0 0 0 0 0 0 0 0 0 0
0 0 0 0 0 0 0 0 0 0 0 0 0 0 0 0 0 0 0 0 0 0 0 0 0 0 0 0 0 0 0 0 0 0 0 0 0 0 0 0 0 0 0 0 0 0 0 0 0
0 0 0 0 0 0 0 0 0 0 0 0 0 0 0 0 0 0 0 0 0 0 0 0 0 0 0 0 0 0 0 0 0 0 0 0 0 0 0 0 0 0 0 0 0 0 0 0 0
0 0 0 0 0 0 0 0 0 -0 0 0 0 0 0 0 0 0 0 0 0 0 0 0 0 0 0 0 0 0 0 0 0 0 0 0 0 0 0 0 0 0 0 0 0 0 0 0 0
0 0 0 0 0 0 0 0 0 0 0 0 0 0 0 0 0 0 0 0 0 0 0 0 0 0 0 0 0 0 0 0 0 0 0 0 0 0 0 0 0 0 0 0 0 0 0 0 0
0 0 0 0 0 0 0 0 0 0 0 0 0 0 0 0 0 0 0 0 0 0 0 0 0 0 0 0 0 0 0 0 0 0 0 0 0 0 0 0 0 0 0 0 0 0 0 0 0
0 0 0 0 0 0 0 0 0 0 0 0 0 0 0 0 0 0 0 0 0 0 0 0 0 0 0 0 0 0 0 0 0 0 0 0 0 0 0 0 0 0 0 0 0 0 0 0 0
0 0 0 0 0 0 0 0 0 0 0 0 0 0 0 0 0 0 0 0 0 0 0 0 0 0 0 0 0 0 0 0 0 0 0 0 0 0 0 0 0 0 0 0 0 0 0 0 0
0 0 0 0 0 0 0 0 -0 -0 0 0 0 0 0 0 0 0 0 0 0 0 0 0 0 0 0 0 0 0 0 0 0 0 0 0 0 0 0 0 0 0 0 0 0 0 0 0 0
0 0 0 0 0 0 0 0 0 0 0 0 0 0 0 0 0 0 0 0 0 0 0 0 0 0 0 0 0 0 0 0 0 0 0 0 0 0 0 0 0 0 0 0 0 0 0 0 0
0 0 0 0 0 0 0 0 -0 0 0 0 0 0 0 0 0 0 0 0 0 0 0 0 0 0 0 0 0 0 0 0 0 0 0 0 0 0 0 0 0 0 0 0 0 0 0 0 0
0 0 0 0 0 0 0 0 -0 0 0 0 0 0 0 0 0 0 0 0 0 0 1 1 0 0 0 0 0 0 0 0 0 0 0 0 0 0 0 0 0 0 0 0 0 0 0 0 0
0 0 0 -0 0 0 0 0 0 0 0 0 0 0 0 0 0 0 0 0 0 0 1 1 0 0 0 0 0 0 0 0 0 0 0 0 0 0 0 0 0 0 0 0 0 0 0 0 0
0 0 0 0 0 0 0 0 0 0 0 0 0 0 0 0 0 0 0 0 0 0 1 1 1 0 0 0 0 0 0 0 0 0 0 0 0 0 0 0 0 0 0 0 0 0 0 0 0
0 0 0 0 0 0 0 -0 -0 0 0 0 0 0 0 0 0 0 0 0 0 0 0 1 1 0 0 0 0 0 0 0 0 0 0 0 0 0 0 0 0 0 0 0 0 0 0 0 0
0 0 0 0 0 0 0 0 0 0 0 0 -0 0 0 0 0 0 0 0 0 0 0 0 1 0 0 0 0 0 0 0 0 0 0 0 0 0 0 0 0 0 0 0 0 0 0 0 0
0 0 0 0 0 0 0 0 0 0 -0 -0 0 0 0 0 0 0 0 0 0 0 0 0 0 0 0 0 0 0 0 0 0 0 0 0 0 0 0 0 0 0 0 0 0 0 0 0 0
0 0 0 0 0 0 0 0 0 -0 -0 0 0 0 0 0 0 0 0 0 0 0 0 0 0 0 0 0 -0 0 0 0 0 0 0 0 0 0 0 0 0 0 0 0 0 0 0 0 0
Wind_Speed_500mb
17 16 13 10 12 12 23 21 16 9 11 1 3 5 4 11 7 5 23 22 46 49 55 49 46 41 32 28 23 21 27 29 31 33 33 34 32 22 24 20 34 28 27 31 30 34 33 32 31
13 12 10 16 15 22 20 25 14 20 9 5 8 4 7 11 11 17 27 38 48 48 54 50 48 43 36 28 22 21 27 33 34 31 28 33 33 25 18 24 32 27 23 29 30 32 33 33 34
13 9 18 9 23 27 20 11 18 7 7 11 8 5 6 11 9 27 18 44 48 45 49 50 49 43 39 29 24 21 32 34 34 28 27 31 28 28 21 21 21 27 27 29 29 30 33 32 31
9 15 17 19 30 30 28 10 7 13 9 8 7 8 7 8 14 15 40 48 44 42 45 53 50 45 40 33 25 23 30 32 32 24 25 27 27 31 23 16 18 27 31 27 30 28 31 31 27
14 21 21 29 41 31 18 33 2 15 16 16 14 6 5 6 16 28 45 45 44 44 43 57 53 47 41 32 24 26 31 25 23 24 28 25 31 28 19 18 29 31 28 27 27 27 30 28 26
25 21 25 32 36 33 26 30 22 22 16 9 16 7 8 11 22 39 41 42 44 41 42 60 52 49 39 32 25 31 31 25 18 17 25 24 26 24 26 24 28 30 26 26 28 24 26 24 24
30 21 32 35 33 32 27 31 22 23 29 22 10 15 9 21 29 41 43 44 48 50 47 55 53 49 39 29 29 38 34 27 16 14 20 23 28 25 23 26 27 25 24 24 24 23 21 20 22
37 25 38 36 33 32 17 19 23 18 23 2 11 12 10 33 40 41 41 50 41 48 51 52 53 50 42 34 39 43 40 31 20 12 17 24 28 25 27 26 22 19 20 20 21 18 19 18 17
26 24 30 41 36 26 25 13 14 7 19 8 8 4 5 38 48 44 49 53 51 51 51 54 54 43 40 41 47 46 38 34 24 16 19 26 27 27 24 21 21 20 18 16 18 16 15 15 14
28 26 35 31 24 17 29 21 20 14 16 19 18 15 10 34 51 53 59 65 65 62 58 54 50 42 39 38 51 44 42 40 26 24 25 23 23 21 20 27 25 21 19 15 14 14 15 13 13
34 37 29 17 21 22 27 30 25 23 18 10 19 9 23 37 48 48 52 55 72 65 57 52 48 46 44 40 48 48 47 37 27 26 29 26 28 32 22 27 27 24 17 14 13 18 18 17 13
38 36 47 43 28 23 23 30 33 35 29 3 13 6 22 39 50 49 46 51 62 65 57 50 49 47 46 43 45 44 51 39 31 30 32 31 28 30 21 25 26 25 18 13 12 16 22 21 15
32 39 37 32 23 28 34 41 32 37 33 22 12 6 17 34 39 38 37 43 50 63 70 56 52 50 48 45 47 40 43 40 35 35 36 33 30 33 29 21 27 25 21 17 16 15 20 19 18
13 24 37 24 23 33 33 39 46 40 40 43 23 16 18 30 39 37 40 44 50 58 62 65 55 52 50 49 49 47 46 45 40 38 41 37 34 33 30 30 23 23 23 21 18 17 18 19 19
20 22 26 39 45 33 30 48 49 56 52 46 40 33 22 26 35 46 44 47 46 55 64 71 63 54 52 48 48 46 49 48 46 44 42 44 37 34 31 29 30 27 24 23 23 21 19 19 20
9 14 19 20 41 45 42 45 29 48 56 57 57 54 46 31 33 38 47 48 46 55 65 69 70 68 54 52 54 47 45 49 52 49 47 50 45 39 36 33 30 29 26 25 23 22 19 20 21
12 13 19 21 21 21 37 21 21 48 41 37 47 56 59 51 39 38 46 51 60 58 59 67 76 76 73 56 52 51 51 57 55 53 50 54 50 43 39 37 33 32 27 26 25 24 21 20 24
9 15 14 16 5 13 32 39 35 40 31 37 47 55 53 56 53 44 45 51 57 66 64 65 71 84 79 71 54 57 56 59 59 58 55 54 55 50 45 39 37 35 32 29 30 26 24 22 25
20 20 25 25 14 25 27 33 37 41 49 43 51 54 50 59 52 47 46 51 57 63 71 73 68 81 86 82 73 64 62 59 64 63 58 53 56 55 53 50 46 40 38 34 32 33 33 30 29
22 27 29 28 23 24 32 44 40 43 43 48 47 52 55 49 48 45 41 49 60 59 74 74 72 69 84 88 90 77 59 60 65 69 67 64 60 63 61 58 53 47 43 40 39 40 39 38 35
19 25 26 27 27 30 34 40 38 43 65 60 63 64 60 54 56 54 47 49 62 65 70 78 75 77 74 86 88 86 59 63 69 74 74 73 69 67 63 62 60 54 51 48 44 45 44 43 39
21 10 16 18 13 10 11 17 30 24 26 39 62 67 71 72 60 59 55 50 59 67 66 74 75 80 79 77 84 86 90 84 88 83 81 78 73 71 70 69 68 63 59 56 52 48 47 49 47
8 11 15 18 19 23 23 15 15 16 28 37 32 50 61 62 69 63 63 56 51 61 73 70 70 78 79 76 86 85 85 91 85 80 83 81 79 79 79 75 75 74 70 65 62 58 54 56 58
15 14 17 15 10 13 26 26 33 36 37 37 38 45 43 51 57 72 68 62 62 63 70 77 73 78 80 82 81 86 84 85 83 89 87 86 85 85 84 81 80 82 78 76 73 67 62 59 63
12 3 5 7 9 12 8 20 43 35 45 41 41 52 51 44 52 65 67 67 67 73 75 75 77 75 80 88 84 87 85 83 92 86 86 88 91 94 91 89 87 87 87 82 81 77 73 68 69
14 11 7 10 7 14 10 16 19 19 33 34 37 43 52 61 58 62 57 59 59 71 73 78 77 77 71 81 84 89 91 87 92 87 91 87 92 94 91 92 90 89 89 88 88 86 82 78 75
5 11 11 10 18 16 19 37 36 18 20 21 32 39 41 39 53 59 40 54 57 66 73 79 82 67 67 72 77 84 90 91 94 95 85 95 88 88 89 90 91 91 88 90 91 92 91 88 83
8 9 3 8 8 12 14 26 15 29 33 37 28 26 30 28 29 30 29 45 46 58 61 69 79 79 72 76 75 77 79 80 90 86 91 93 93 91 89 88 88 92 90 89 89 93 93 96 93
6 7 11 10 10 8 12 6 11 20 25 23 23 24 23 24 19 14 14 15 13 37 47 55 64 69 74 71 70 74 73 74 81 87 90 95 94 93 95 90 87 90 91 92 92 93 93 99 97
15 19 20 8 5 9 6 12 10 15 18 23 21 22 21 21 19 25 23 13 7 22 21 28 37 50 55 59 69 73 75 74 74 81 82 85 87 94 97 93 90 89 92 92 94 93 94 101 100
Wind_Direction_500mb
326 325 305 284 247 235 253 240 248 230 225 121 178 188 289 21 340 17 143 162 162 161 167 164 161 164 168 157 152 140 145 145 136 126 120 116 112 103 90 96 108 115 97 101 100 91 86 86 90
301 312 279 268 248 239 239 229 209 239 69 144 153 192 216 85 71 124 148 149 157 158 166 167 165 168 173 165 158 148 151 143 134 130 125 123 119 118 112 93 114 108 113 108 106 97 92 92 91
303 278 261 233 239 247 254 185 228 120 171 179 183 259 359 82 102 139 158 152 157 160 162 173 170 176 174 169 165 158 148 143 134 139 131 126 124 119 121 113 123 120 118 116 111 97 94 94 93
262 233 250 241 239 239 254 282 297 151 173 208 239 207 106 125 144 161 152 152 155 161 163 175 174 175 175 174 170 163 158 148 142 145 132 130 130 125 140 126 118 114 116 120 115 103 100 94 95
234 254 245 229 243 247 270 276 281 222 212 201 197 191 114 135 143 147 151 153 158 159 169 173 174 176 177 174 172 165 158 152 147 150 136 127 131 138 139 126 126 132 126 127 118 106 99 93 89
228 240 237 239 238 237 234 270 267 251 229 179 199 205 134 163 146 151 154 156 160 162 175 170 173 176 177 177 174 165 160 163 152 156 138 128 124 124 126 131 126 130 137 133 126 113 105 94 86
237 218 240 249 252 241 216 246 267 250 244 228 263 206 139 162 158 157 160 163 163 173 174 171 174 178 179 181 173 160 167 176 158 160 140 141 136 142 140 133 132 139 141 134 128 120 107 99 92
235 253 249 245 249 252 259 248 255 285 282 148 215 226 195 176 160 162 164 160 161 170 172 172 178 178 180 175 168 161 171 184 174 167 152 150 150 149 139 139 145 145 144 138 133 117 104 115 98
230 246 239 240 237 240 242 243 227 298 282 262 246 312 76 172 161 166 165 167 172 176 180 180 180 174 176 172 170 169 181 188 189 187 167 149 149 143 140 153 156 153 149 147 147 142 131 137 112
220 223 240 255 264 237 248 234 273 299 254 233 243 260 197 177 172 175 177 178 179 178 181 180 182 176 174 174 175 179 189 188 193 194 170 141 147 152 175 163 158 159 152 153 157 163 161 146 133
219 241 241 244 299 264 266 261 263 255 258 281 327 210 177 178 185 189 186 188 185 176 180 181 180 181 177 186 177 191 189 184 187 190 168 168 176 182 169 168 171 167 156 162 164 178 181 172 163
237 235 245 266 242 242 251 260 260 251 248 89 3 342 198 194 195 198 195 193 190 189 179 183 186 184 182 183 177 197 190 184 191 192 177 175 183 152 183 176 183 176 172 171 151 172 191 188 196
243 246 253 253 254 269 263 260 262 259 250 236 300 255 216 214 211 207 206 203 203 197 196 187 189 187 187 185 180 192 192 189 190 192 185 181 178 171 169 200 195 185 181 180 180 183 191 201 202
342 282 267 253 266 255 252 257 248 248 246 250 237 238 226 219 222 216 212 209 208 208 204 192 194 192 190 190 187 188 191 195 192 195 193 186 185 180 177 182 190 194 183 187 194 198 201 203 207
277 278 267 252 247 241 248 257 247 250 250 250 239 232 231 222 215 221 217 212 212 219 212 208 195 196 194 194 192 191 190 198 197 200 198 192 185 187 189 188 196 201 202 195 199 203 209 210 202
268 242 254 247 234 237 229 255 262 236 237 241 242 242 239 233 223 217 218 212 211 219 217 211 207 203 197 197 205 195 196 196 204 203 204 199 190 194 197 193 198 205 210 211 209 209 213 211 206
210 269 236 277 259 235 213 263 250 252 244 247 247 247 240 236 231 225 220 226 208 211 223 216 215 213 208 201 207 199 201 205 207 207 207 205 199 196 200 206 208 211 215 218 206 203 211 209 206
299 231 249 262 37 290 263 261 264 262 250 256 252 250 249 242 234 233 224 218 226 212 221 222 223 220 220 212 206 208 208 212 209 212 212 209 206 203 203 208 216 213 217 216 206 204 211 215 212
286 272 274 273 272 301 272 272 272 264 254 249 255 256 249 241 238 237 224 226 224 221 212 222 224 224 220 220 209 213 207 209 212 214 212 210 209 211 206 211 216 214 221 223 222 211 213 217 214
268 269 274 281 275 269 284 280 270 264 257 252 245 255 252 245 240 233 223 218 225 225 220 217 233 228 220 220 223 218 212 215 217 218 218 214 213 217 212 218 221 218 223 224 225 224 219 223 224
262 264 272 275 305 285 279 282 264 250 248 249 247 248 250 250 244 240 229 217 223 225 224 223 230 232 225 222 223 222 218 223 221 222 220 220 220 221 217 220 225 225 227 231 233 234 229 230 226
292 323 292 281 286 280 34 291 295 297 272 239 238 240 246 244 242 236 233 223 222 227 230 225 226 231 232 227 220 215 216 219 226 224 225 226 222 223 224 224 228 230 232 234 236 238 237 235 236
260 326 295 288 278 297 254 262 273 256 266 265 255 241 244 254 250 245 234 229 224 228 221 227 225 225 236 230 225 217 220 227 227 225 229 230 227 226 230 228 229 232 234 237 240 240 238 239 240
277 316 273 272 267 249 240 221 271 258 268 267 268 277 272 254 257 245 239 232 224 232 220 227 229 232 239 237 227 219 223 221 223 232 233 234 233 230 233 235 232 235 236 237 240 243 244 244 246
251 259 281 223 202 252 281 218 248 298 295 291 295 281 273 277 256 255 240 235 226 223 221 228 229 232 233 237 234 231 224 226 230 235 237 234 235 236 234 236 235 236 237 238 241 243 246 244 247
198 202 255 288 286 294 287 241 247 296 331 299 287 283 284 269 266 261 247 241 233 221 219 230 229 226 236 237 235 233 228 234 236 234 239 240 242 243 241 239 240 240 241 241 242 243 247 248 248
59 210 289 283 257 272 249 269 270 40 360 341 325 305 298 280 267 269 256 269 239 222 222 228 235 230 242 240 239 235 233 237 240 238 235 245 247 247 246 244 243 244 244 244 245 245 247 248 250
220 338 185 198 273 275 274 288 298 343 328 323 315 298 306 311 293 280 266 261 241 225 223 226 235 238 239 251 244 241 242 240 240 234 238 243 247 247 248 248 246 245 245 247 247 247 249 251 250
165 207 236 291 264 291 309 288 351 323 334 326 318 319 342 332 323 339 350 333 261 222 220 226 230 236 241 244 243 245 244 246 242 240 240 244 248 248 252 252 251 248 247 248 248 249 251 253 253
269 253 219 240 224 222 269 285 348 354 318 315 319 336 0 9 29 40 46 44 123 177 185 211 226 236 246 246 251 251 254 251 248 250 252 242 244 250 254 257 255 253 251 250 250 251 252 253 253
Wind_Speed_850mb
17 16 13 10 12 12 23 21 16 9 11 1 3 5 4 11 7 5 23 22 46 49 55 49 46 41 32 28 23 21 27 29 31 33 33 34 32 22 24 20 34 28 27 31 30 34 33 32 31
13 12 10 16 15 22 20 25 14 20 9 5 8 4 7 11 11 17 27 38 48 48 54 50 48 43 36 28 22 21 27 33 34 31 28 33 33 25 18 24 32 27 23 29 30 32 33 33 34
13 9 18 9 23 27 20 11 18 7 7 11 8 5 6 11 9 27 18 44 48 45 49 50 49 43 39 29 24 21 32 34 34 28 27 31 28 28 21 21 21 27 27 29 29 30 33 32 31
9 15 17 19 30 30 28 10 7 13 9 8 7 8 7 8 14 15 40 48 44 42 45 53 50 45 40 33 25 23 30 32 32 24 25 27 27 31 23 16 18 27 31 27 30 28 31 31 27
14 21 21 29 41 31 18 33 2 15 16 16 14 6 5 6 16 28 45 45 44 44 43 57 53 47 41 32 24 26 31 25 23 24 28 25 31 28 19 18 29 31 28 27 27 27 30 28 26
25 21 25 32 36 33 26 30 22 22 16 9 16 7 8 11 22 39 41 42 44 41 42 60 52 49 39 32 25 31 31 25 18 17 25 24 26 24 26 24 28 30 26 26 28 24 26 24 24
30 21 32 35 33 32 27 31 22 23 29 22 10 15 9 21 29 41 43 44 48 50 47 55 53 49 39 29 29 38 34 27 16 14 20 23 28 25 23 26 27 25 24 24 24 23 21 20 22
37 25 38 36 33 32 17 19 23 18 23 2 11 12 10 33 40 41 41 50 41 48 51 52 53 50 42 34 39 43 40 31 20 12 17 24 28 25 27 26 22 19 20 20 21 18 19 18 17
26 24 30 41 36 26 25 13 14 7 19 8 8 4 5 38 48 44 49 53 51 51 51 54 54 43 40 41 47 46 38 34 24 16 19 26 27 27 24 21 21 20 18 16 18 16 15 15 14
28 26 35 31 24 17 29 21 20 14 16 19 18 15 10 34 51 53 59 65 65 62 58 54 50 42 39 38 51 44 42 40 26 24 25 23 23 21 20 27 25 21 19 15 14 14 15 13 13
34 37 29 17 21 22 27 30 25 23 18 10 19 9 23 37 48 48 52 55 72 65 57 52 48 46 44 40 48 48 47 37 27 26 29 26 28 32 22 27 27 24 17 14 13 18 18 17 13
38 36 47 43 28 23 23 30 33 35 29 3 13 6 22 39 50 49 46 51 62 65 57 50 49 47 46 43 45 44 51 39 31 30 32 31 28 30 21 25 26 25 18 13 12 16 22 21 15
32 39 37 32 23 28 34 41 32 37 33 22 12 6 17 34 39 38 37 43 50 63 70 56 52 50 48 45 47 40 43 40 35 35 36 33 30 33 29 21 27 25 21 17 16 15 20 19 18
13 24 37 24 23 33 33 39 46 40 40 43 23 16 18 30 39 37 40 44 50 58 62 65 55 52 50 49 49 47 46 45 40 38 41 37 34 33 30 30 23 23 23 21 18 17 18 19 19
20 22 26 39 45 33 30 48 49 56 52 46 40 33 22 26 35 46 44 47 46 55 64 71 63 54 52 48 48 46 49 48 46 44 42 44 37 34 31 29 30 27 24 23 23 21 19 19 20
9 14 19 20 41 45 42 45 29 48 56 57 57 54 46 31 33 38 47 48 46 55 65 69 70 68 54 52 54 47 45 49 52 49 47 50 45 39 36 33 30 29 26 25 23 22 19 20 21
12 13 19 21 21 21 37 21 21 48 41 37 47 56 59 51 39 38 46 51 60 58 59 67 76 76 73 56 52 51 51 57 55 53 50 54 50 43 39 37 33 32 27 26 25 24 21 20 24
9 15 14 16 5 13 32 39 35 40 31 37 47 55 53 56 53 44 45 51 57 66 64 65 71 84 79 71 54 57 56 59 59 58 55 54 55 50 45 39 37 35 32 29 30 26 24 22 25
20 20 25 25 14 25 27 33 37 41 49 43 51 54 50 59 52 47 46 51 57 63 71 73 68 81 86 82 73 64 62 59 64 63 58 53 56 55 53 50 46 40 38 34 32 33 33 30 29
22 27 29 28 23 24 32 44 40 43 43 48 47 52 55 49 48 45 41 49 60 59 74 74 72 69 84 88 90 77 59 60 65 69 67 64 60 63 61 58 53 47 43 40 39 40 39 38 35
19 25 26 27 27 30 34 40 38 43 65 60 63 64 60 54 56 54 47 49 62 65 70 78 75 77 74 86 88 86 59 63 69 74 74 73 69 67 63 62 60 54 51 48 44 45 44 43 39
21 10 16 18 13 10 11 17 30 24 26 39 62 67 71 72 60 59 55 50 59 67 66 74 75 80 79 77 84 86 90 84 88 83 81 78 73 71 70 69 68 63 59 56 52 48 47 49 47
8 11 15 18 19 23 23 15 15 16 28 37 32 50 61 62 69 63 63 56 51 61 73 70 70 78 79 76 86 85 85 91 85 80 83 81 79 79 79 75 75 74 70 65 62 58 54 56 58
15 14 17 15 10 13 26 26 33 36 37 37 38 45 43 51 57 72 68 62 62 63 70 77 73 78 80 82 81 86 84 85 83 89 87 86 85 85 84 81 80 82 78 76 73 67 62 59 63
12 3 5 7 9 12 8 20 43 35 45 41 41 52 51 44 52 65 67 67 67 73 75 75 77 75 80 88 84 87 85 83 92 86 86 88 91 94 91 89 87 87 87 82 81 77 73 68 69
14 11 7 10 7 14 10 16 19 19 33 34 37 43 52 61 58 62 57 59 59 71 73 78 77 77 71 81 84 89 91 87 92 87 91 87 92 94 91 92 90 89 89 88 88 86 82 78 75
5 11 11 10 18 16 19 37 36 18 20 21 32 39 41 39 53 59 40 54 57 66 73 79 82 67 67 72 77 84 90 91 94 95 85 95 88 88 89 90 91 91 88 90 91 92 91 88 83
8 9 3 8 8 12 14 26 15 29 33 37 28 26 30 28 29 30 29 45 46 58 61 69 79 79 72 76 75 77 79 80 90 86 91 93 93 91 89 88 88 92 90 89 89 93 93 96 93
6 7 11 10 10 8 12 6 11 20 25 23 23 24 23 24 19 14 14 15 13 37 47 55 64 69 74 71 70 74 73 74 81 87 90 95 94 93 95 90 87 90 91 92 92 93 93 99 97
15 19 20 8 5 9 6 12 10 15 18 23 21 22 21 21 19 25 23 13 7 22 21 28 37 50 55 59 69 73 75 74 74 81 82 85 87 94 97 93 90 89 92 92 94 93 94 101 100
Wind_Direction_850mb
326 325 305 284 247 235 253 240 248 230 225 121 178 188 289 21 340 17 143 162 162 161 167 164 161 164 168 157 152 140 145 145 136 126 120 116 112 103 90 96 108 115 97 101 100 91 86 86 90
301 312 279 268 248 239 239 229 209 239 69 144 153 192 216 85 71 124 148 149 157 158 166 167 165 168 173 165 158 148 151 143 134 130 125 123 119 118 112 93 114 108 113 108 106 97 92 92 91
303 278 261 233 239 247 254 185 228 120 171 179 183 259 359 82 102 139 158 152 157 160 162 173 170 176 174 169 165 158 148 143 134 139 131 126 124 119 121 113 123 120 118 116 111 97 94 94 93
262 233 250 241 239 239 254 282 297 151 173 208 239 207 106 125 144 161 152 152 155 161 163 175 174 175 175 174 170 163 158 148 142 145 132 130 130 125 140 126 118 114 116 120 115 103 100 94 95
234 254 245 229 243 247 270 276 281 222 212 201 197 191 114 135 143 147 151 153 158 159 169 173 174 176 177 174 172 165 158 152 147 150 136 127 131 138 139 126 126 132 126 127 118 106 99 93 89
228 240 237 239 238 237 234 270 267 251 229 179 199 205 134 163 146 151 154 156 160 162 175 170 173 176 177 177 174 165 160 163 152 156 138 128 124 124 126 131 126 130 137 133 126 113 105 94 86
237 218 240 249 252 241 216 246 267 250 244 228 263 206 139 162 158 157 160 163 163 173 174 171 174 178 179 181 173 160 167 176 158 160 140 141 136 142 140 133 132 139 141 134 128 120 107 99 92
235 253 249 245 249 252 259 248 255 285 282 148 215 226 195 176 160 162 164 160 161 170 172 172 178 178 180 175 168 161 171 184 174 167 152 150 150 149 139 139 145 145 144 138 133 117 104 115 98
230 246 239 240 237 240 242 243 227 298 282 262 246 312 76 172 161 166 165 167 172 176 180 180 180 174 176 172 170 169 181 188 189 187 167 149 149 143 140 153 156 153 149 147 147 142 131 137 112
220 223 240 255 264 237 248 234 273 299 254 233 243 260 197 177 172 175 177 178 179 178 181 180 182 176 174 174 175 179 189 188 193 194 170 141 147 152 175 163 158 159 152 153 157 163 161 146 133
219 241 241 244 299 264 266 261 263 255 258 281 327 210 177 178 185 189 186 188 185 176 180 181 180 181 177 186 177 191 189 184 187 190 168 168 176 182 169 168 171 167 156 162 164 178 181 172 163
237 235 245 266 242 242 251 260 260 251 248 89 3 342 198 194 195 198 195 193 190 189 179 183 186 184 182 183 177 197 190 184 191 192 177 175 183 152 183 176 183 176 172 171 151 172 191 188 196
243 246 253 253 254 269 263 260 262 259 250 236 300 255 216 214 211 207 206 203 203 197 196 187 189 187 187 185 180 192 192 189 190 192 185 181 178 171 169 200 195 185 181 180 180 183 191 201 202
342 282 267 253 266 255 252 257 248 248 246 250 237 238 226 219 222 216 212 209 208 208 204 192 194 192 190 190 187 188 191 195 192 195 193 186 185 180 177 182 190 194 183 187 194 198 201 203 207
277 278 267 252 247 241 248 257 247 250 250 250 239 232 231 222 215 221 217 212 212 219 212 208 195 196 194 194 192 191 190 198 197 200 198 192 185 187 189 188 196 201 202 195 199 203 209 210 202
268 242 254 247 234 237 229 255 262 236 237 241 242 242 239 233 223 217 218 212 211 219 217 211 207 203 197 197 205 195 196 196 204 203 204 199 190 194 197 193 198 205 210 211 209 209 213 211 206
210 269 236 277 259 235 213 263 250 252 244 247 247 247 240 236 231 225 220 226 208 211 223 216 215 213 208 201 207 199 201 205 207 207 207 205 199 196 200 206 208 211 215 218 206 203 211 209 206
299 231 249 262 37 290 263 261 264 262 250 256 252 250 249 242 234 233 224 218 226 212 221 222 223 220 220 212 206 208 208 212 209 212 212 209 206 203 203 208 216 213 217 216 206 204 211 215 212
286 272 274 273 272 301 272 272 272 264 254 249 255 256 249 241 238 237 224 226 224 221 212 222 224 224 220 220 209 213 207 209 212 214 212 210 209 211 206 211 216 214 221 223 222 211 213 217 214
268 269 274 281 275 269 284 280 270 264 257 252 245 255 252 245 240 233 223 218 225 225 220 217 233 228 220 220 223 218 212 215 217 218 218 214 213 217 212 218 221 218 223 224 225 224 219 223 224
262 264 272 275 305 285 279 282 264 250 248 249 247 248 250 250 244 240 229 217 223 225 224 223 230 232 225 222 223 222 218 223 221 222 220 220 220 221 217 220 225 225 227 231 233 234 229 230 226
292 323 292 281 286 280 34 291 295 297 272 239 238 240 246 244 242 236 233 223 222 227 230 225 226 231 232 227 220 215 216 219 226 224 225 226 222 223 224 224 228 230 232 234 236 238 237 235 236
260 326 295 288 278 297 254 262 273 256 266 265 255 241 244 254 250 245 234 229 224 228 221 227 225 225 236 230 225 217 220 227 227 225 229 230 227 226 230 228 229 232 234 237 240 240 238 239 240
277 316 273 272 267 249 240 221 271 258 268 267 268 277 272 254 257 245 239 232 224 232 220 227 229 232 239 237 227 219 223 221 223 232 233 234 233 230 233 235 232 235 236 237 240 243 244 244 246
251 259 281 223 202 252 281 218 248 298 295 291 295 281 273 277 256 255 240 235 226 223 221 228 229 232 233 237 234 231 224 226 230 235 237 234 235 236 234 236 235 236 237 238 241 243 246 244 247
198 202 255 288 286 294 287 241 247 296 331 299 287 283 284 269 266 261 247 241 233 221 219 230 229 226 236 237 235 233 228 234 236 234 239 240 242 243 241 239 240 240 241 241 242 243 247 248 248
59 210 289 283 257 272 249 269 270 40 360 341 325 305 298 280 267 269 256 269 239 222 222 228 235 230 242 240 239 235 233 237 240 238 235 245 247 247 246 244 243 244 244 244 245 245 247 248 250
220 338 185 198 273 275 274 288 298 343 328 323 315 298 306 311 293 280 266 261 241 225 223 226 235 238 239 251 244 241 242 240 240 234 238 243 247 247 248 248 246 245 245 247 247 247 249 251 250
165 207 236 291 264 291 309 288 351 323 334 326 318 319 342 332 323 339 350 333 261 222 220 226 230 236 241 244 243 245 244 246 242 240 240 244 248 248 252 252 251 248 247 248 248 249 251 253 253
269 253 219 240 224 222 269 285 348 354 318 315 319 336 0 9 29 40 46 44 123 177 185 211 226 236 246 246 251 251 254 251 248 250 252 242 244 250 254 257 255 253 251 250 250 251 252 253 253